Date String (YYYY-MM-DD hh:mm:ss) UTC,Instrument flags,Ambient pressure (hPa),Sample flow (lpm),Bypass flow (lpm),Sample temperature (°C),Ambient temperature (°C),ASC tube jacket temperature (°C),LED temperature (°C),Box temperature (°C),Sample RH (%),Span deviation,Mass concentration (μg/m³),Mass concentration (μg/m³),Mass concentration (μg/m³)
DateTimeUTC,F1_M11,P_M11,Q1_M11,Q2_M11,T1_M11,T2_M11,T3_M11,T4_M11,T5_M11,U1_M11,ZSPAN_M11,X0_M11,X2_M11,X1_M11
2022-03-18 11:00:00,,0826.0,5.00,0.00,22.2,21.6,00.0,31.3,23.9,11.8,0000.0,0003.68,0002.28,0001.98
2022-03-18 11:01:00,,0826.0,5.00,0.00,22.2,21.5,00.0,31.3,23.9,11.9,0000.0,0003.72,0002.28,0001.96
2022-03-18 11:02:00,,0826.0,5.01,0.00,22.2,21.5,00.0,31.3,23.9,11.9,0000.0,0003.76,0002.30,0001.95
2022-03-18 11:03:00,,0826.0,5.00,0.00,22.1,21.4,00.0,31.3,23.8,11.8,0000.0,0003.81,0002.30,0001.93
2022-03-18 11:04:00,,0826.0,5.00,0.00,22.1,21.3,00.0,31.2,23.8,11.8,0000.0,0003.88,0002.30,0001.90
2022-03-18 11:05:00,,0826.0,5.00,0.00,22.1,21.3,00.0,31.2,23.7,11.8,0000.0,0003.93,0002.29,0001.88
2022-03-18 11:06:00,,0826.0,5.00,0.00,22.1,21.2,00.0,31.2,23.7,11.8,0000.0,0003.49,0002.26,0001.87
2022-03-18 11:07:00,,0826.0,4.99,0.00,22.0,21.4,00.0,31.2,23.7,11.8,0000.0,0003.14,0002.23,0001.85
2022-03-18 11:08:00,,0826.0,5.00,0.00,22.1,22.0,00.0,31.2,23.9,11.7,0000.0,0003.10,0002.21,0001.83
2022-03-18 11:09:00,,0826.0,5.00,0.00,22.3,22.8,00.0,31.3,24.2,11.5,0000.0,0003.09,0002.18,0001.80
2022-03-18 11:10:00,,0826.1,5.00,0.00,22.4,23.0,00.0,31.3,24.3,11.4,0000.0,0003.00,0002.11,0001.77
2022-03-18 11:11:00,,0826.0,5.01,0.00,22.4,22.7,00.0,31.3,24.3,11.4,0000.0,0002.88,0002.04,0001.74
2022-03-18 11:12:00,,0826.0,4.99,0.00,22.4,22.5,00.0,31.3,24.2,11.3,0000.0,0002.89,0002.02,0001.72
2022-03-18 11:13:00,,0826.0,5.00,0.00,22.4,22.2,00.0,31.3,24.1,11.3,0000.0,0002.75,0001.95,0001.69
2022-03-18 11:14:00,,0825.9,5.00,0.00,22.3,22.0,00.0,31.3,24.1,11.2,0000.0,0002.65,0001.90,0001.66
2022-03-18 11:15:00,,0825.9,5.00,0.00,22.3,21.9,00.0,31.3,24.0,11.2,0000.0,0002.50,0001.84,0001.64
2022-03-18 11:16:00,,0826.0,4.99,0.00,22.3,21.7,00.0,31.3,24.0,11.2,0000.0,0002.44,0001.81,0001.62
2022-03-18 11:17:00,,0826.0,5.00,0.00,22.2,21.6,00.0,31.3,24.0,11.2,0000.0,0002.47,0001.81,0001.60
2022-03-18 11:18:00,,0826.0,5.01,0.00,22.2,21.6,00.0,31.3,23.9,11.2,0000.0,0002.45,0001.78,0001.57
2022-03-18 11:19:00,,0826.0,5.00,0.00,22.2,21.5,00.0,31.2,23.9,11.2,0000.0,0002.43,0001.76,0001.55
2022-03-18 11:20:00,,0826.0,5.00,0.00,22.2,21.4,00.0,31.2,23.8,11.2,0000.0,0002.41,0001.74,0001.54
2022-03-18 11:21:00,,0826.0,5.00,0.00,22.1,21.3,00.0,31.2,23.8,11.1,0000.0,0002.40,0001.72,0001.52
2022-03-18 11:22:00,,0826.0,5.01,0.00,22.1,21.3,00.0,31.2,23.7,11.1,0000.0,0002.44,0001.73,0001.50
2022-03-18 11:23:00,,0826.0,5.00,0.00,22.0,21.2,00.0,31.2,23.7,11.1,0000.0,0002.35,0001.70,0001.48
2022-03-18 11:24:00,,0826.0,5.00,0.00,22.1,21.7,00.0,31.2,23.8,11.1,0000.0,0002.28,0001.66,0001.45
2022-03-18 11:25:00,,0826.0,4.99,0.00,22.2,22.4,00.0,31.2,24.1,11.0,0000.0,0002.24,0001.64,0001.43
2022-03-18 11:26:00,,0826.0,5.00,0.00,22.3,23.0,00.0,31.3,24.3,10.8,0000.0,0002.23,0001.62,0001.41
2022-03-18 11:27:00,,0826.0,4.99,0.00,22.4,22.8,00.0,31.3,24.4,10.7,0000.0,0002.22,0001.59,0001.38
2022-03-18 11:28:00,,0826.0,5.00,0.00,22.4,22.6,00.0,31.3,24.3,10.6,0000.0,0002.10,0001.53,0001.34
2022-03-18 11:29:00,,0826.0,5.00,0.00,22.4,22.4,00.0,31.3,24.2,10.6,0000.0,0002.11,0001.52,0001.31
2022-03-18 11:30:00,,0826.0,5.00,0.00,22.4,22.2,00.0,31.3,24.2,10.6,0000.0,0002.07,0001.49,0001.28
2022-03-18 11:31:00,,0826.0,5.00,0.00,22.4,22.0,00.0,31.3,24.1,10.6,0000.0,0002.07,0001.46,0001.24
2022-03-18 11:32:00,,0826.0,4.99,0.00,22.3,21.9,00.0,31.3,24.1,10.6,0000.0,0002.08,0001.44,0001.20
2022-03-18 11:33:00,,0826.0,5.00,0.00,22.3,21.8,00.0,31.3,24.0,10.6,0000.0,0001.97,0001.38,0001.17
2022-03-18 11:34:00,,0826.0,5.00,0.00,22.3,21.7,00.0,31.3,24.0,10.6,0000.0,0001.98,0001.37,0001.14
2022-03-18 11:35:00,,0826.0,5.00,0.00,22.3,21.6,00.0,31.3,24.0,10.5,0000.0,0002.05,0001.38,0001.12
2022-03-18 11:36:00,,0826.0,5.00,0.00,22.2,21.6,00.0,31.3,23.9,10.5,0000.0,0002.14,0001.40,0001.11
2022-03-18 11:37:00,,0826.0,4.99,0.00,22.2,21.5,00.0,31.3,23.9,10.5,0000.0,0002.22,0001.42,0001.09
2022-03-18 11:38:00,,0826.1,5.01,0.00,22.2,21.5,00.0,31.2,23.9,10.5,0000.0,0002.27,0001.45,0001.10
2022-03-18 11:39:00,,0826.0,5.00,0.00,22.2,21.4,00.0,31.2,23.8,10.5,0000.0,0002.23,0001.42,0001.10
2022-03-18 11:40:00,,0826.0,5.00,0.00,22.2,21.4,00.0,31.2,23.8,10.4,0000.0,0002.15,0001.37,0001.08
2022-03-18 11:41:00,,0826.0,5.00,0.00,22.1,21.3,00.0,31.2,23.8,10.4,0000.0,0002.24,0001.38,0001.06
2022-03-18 11:42:00,,0826.0,5.00,0.00,22.1,21.3,00.0,31.2,23.8,10.5,0000.0,0002.23,0001.38,0001.04
2022-03-18 11:43:00,,0826.0,5.00,0.00,22.1,21.6,00.0,31.2,23.8,10.6,0000.0,0002.21,0001.37,0001.04
2022-03-18 11:44:00,,0826.0,5.01,0.00,22.2,22.2,00.0,31.2,24.1,10.6,0000.0,0003.20,0001.38,0001.02
2022-03-18 11:45:00,,0826.0,5.00,0.00,22.4,22.8,00.0,31.3,24.3,10.5,0000.0,0003.84,0001.36,0001.02
2022-03-18 11:46:00,,0826.0,4.99,0.00,22.5,22.8,00.0,31.3,24.4,10.4,0000.0,0003.73,0001.32,0001.02
2022-03-18 11:47:00,,0826.1,5.01,0.00,22.5,22.6,00.0,31.3,24.3,10.4,0000.0,0003.68,0001.30,0001.01
2022-03-18 11:48:00,,0826.1,4.98,0.00,22.4,22.4,00.0,31.3,24.3,10.4,0000.0,0003.60,0001.26,0000.99
2022-03-18 11:49:00,,0826.1,5.00,0.00,22.4,22.2,00.0,31.3,24.2,10.5,0000.0,0003.62,0001.24,0000.97
2022-03-18 11:50:00,,0826.1,5.00,0.00,22.4,22.0,00.0,31.3,24.1,10.5,0000.0,0003.73,0001.26,0000.96
2022-03-18 11:51:00,,0826.0,5.00,0.00,22.4,21.9,00.0,31.3,24.1,10.6,0000.0,0003.76,0001.29,0000.99
2022-03-18 11:52:00,,0826.1,5.00,0.00,22.3,21.7,00.0,31.3,24.0,10.6,0000.0,0003.67,0001.27,0001.00
2022-03-18 11:53:00,,0826.0,5.00,0.00,22.3,21.6,00.0,31.3,23.9,10.7,0000.0,0003.73,0001.29,0001.02
2022-03-18 11:54:00,,0826.0,4.99,0.00,22.2,21.6,00.0,31.3,23.9,10.7,0000.0,0003.72,0001.28,0001.03
2022-03-18 11:55:00,,0826.0,5.00,0.00,22.2,21.5,00.0,31.3,23.9,10.7,0000.0,0002.85,0001.32,0001.05
2022-03-18 11:56:00,,0826.0,5.00,0.00,22.2,21.4,00.0,31.3,23.8,10.7,0000.0,0002.77,0001.37,0001.07
2022-03-18 11:57:00,,0826.0,5.01,0.00,22.1,21.4,00.0,31.3,23.8,10.7,0000.0,0003.11,0001.42,0001.09
2022-03-18 11:58:00,,0826.1,5.00,0.00,22.1,21.3,00.0,31.2,23.8,10.7,0000.0,0003.25,0001.43,0001.09
2022-03-18 11:59:00,,0826.0,5.01,0.00,22.1,21.3,00.0,31.2,23.8,10.7,0000.0,0003.27,0001.44,0001.10
